H1 CPF 2 NER 2021 12 10 9 344 01 glonass135 H2 1600801 9135 41330 2021 12 10 0 0 0 2021 12 13 23 45 0 900 1 1 0 0 0 1 H9 10 0 59558 0.00000 0 11174911.402 -193327.713 22947606.203 10 0 59558 900.00000 0 10263158.785 2505523.947 23232431.213 10 0 59558 1800.00000 0 9555579.152 5272939.236 23066813.540 10 0 59558 2700.00000 0 9067226.327 8039231.331 22453792.934 10 0 59558 3600.00000 0 8800604.096 10733529.478 21405076.798 10 0 59558 4500.00000 0 8745648.674 13286498.531 19940828.947 10 0 59558 5400.00000 0 8880254.700 15633006.656 18089295.012 10 0 59558 6300.00000 0 9171323.673 17714630.991 15886270.218 10 0 59558 7200.00000 0 9576291.734 19481896.999 13374418.384 10 0 59558 8100.00000 0 10045073.246 20896157.891 10602454.002 10 0 59558 9000.00000 0 10522338.708 21931034.942 7624202.200 10 0 59558 9900.00000 0 10950030.860 22573357.550 4497554.330 10 0 59558 10800.00000 0 11270012.146 22823562.795 1283339.323 10 0 59558 11700.00000 0 11426730.513 22695537.021 -1955866.889 10 0 59558 12600.00000 0 11369789.312 22215905.700 -5156969.780 10 0 59558 13500.00000 0 11056310.643 21422801.500 -8257597.405 10 0 59558 14400.00000 0 10452990.194 20364162.927 -11197328.758 10 0 59558 15300.00000 0 9537754.610 19095636.116 -13918883.859 10 0 59558 16200.00000 0 8300949.553 17678169.434 -16369251.004 10 0 59558 17100.00000 0 6746006.646 16175403.594 -18500728.104 10 0 59558 18000.00000 0 4889560.058 14650968.629 -20271856.960 10 0 59558 18900.00000 0 2761006.944 13165802.689 -21648231.888 10 0 59558 19800.00000 0 401529.686 11775606.275 -22603166.987 10 0 59558 20700.00000 0 -2137379.177 10528539.346 -23118209.355 10 0 59558 21600.00000 0 -4795827.657 9463257.892 -23183489.022 10 0 59558 22500.00000 0 -7507790.741 8607371.709 -22797899.630 10 0 59558 23400.00000 0 -10203637.846 7976387.007 -21969107.328 10 0 59558 24300.00000 0 -12812816.039 7573176.671 -20713388.730 10 0 59558 25200.00000 0 -15266577.559 7387998.627 -19055301.955 10 0 59558 26100.00000 0 -17500638.509 7399059.673 -17027197.986 10 0 59558 27000.00000 0 -19457658.835 7573599.245 -14668582.464 10 0 59558 27900.00000 0 -21089441.386 7869445.841 -12025340.787 10 0 59558 28800.00000 0 -22358759.628 8236979.233 -9148841.952 10 0 59558 29700.00000 0 -23240739.297 8621414.742 -6094938.747 10 0 59558 30600.00000 0 -23723737.925 8965312.589 -2922883.768 10 0 59558 31500.00000 0 -23809687.031 9211206.155 305817.624 10 0 59558 32400.00000 0 -23513884.253 9304238.246 3528595.326 10 0 59558 33300.00000 0 -22864245.427 9194694.301 6683020.713 10 0 59558 34200.00000 0 -21900049.003 8840326.046 9708007.993 10 0 59558 35100.00000 0 -20670226.082 8208367.928 12544988.026 10 0 59558 36000.00000 0 -19231267.984 7277161.603 15139032.586 10 0 59558 36900.00000 0 -17644838.861 6037320.058 17439908.062 10 0 59558 37800.00000 0 -15975192.775 4492382.054 19403039.205 10 0 59558 38700.00000 0 -14286502.496 2658928.513 20990365.200 10 0 59558 39600.00000 0 -12640210.684 566154.723 22171072.313 10 0 59558 40500.00000 0 -11092513.097 -1745085.576 22922189.694 10 0 59558 41400.00000 0 -9692077.858 -4223726.443 23229037.199 10 0 59558 42300.00000 0 -8478095.281 -6810368.348 23085516.634 10 0 59558 43200.00000 0 -7478739.102 -9439513.335 22494240.469 10 0 59558 44100.00000 0 -6710103.178 -12042066.033 21466494.801 10 0 59558 45000.00000 0 -6175658.299 -14547998.381 20022036.194 10 0 59558 45900.00000 0 -5866252.231 -16889068.743 18188724.986 10 0 59558 46800.00000 0 -5760653.626 -19001483.221 16002000.634 10 0 59558 47700.00000 0 -5826617.695 -20828388.584 13504207.777 10 0 59558 48600.00000 0 -6022429.438 -22322092.663 10743784.760 10 0 59558 49500.00000 0 -6298859.863 -23445918.818 7774329.251 10 0 59558 50400.00000 0 -6601452.686 -24175615.833 4653558.542 10 0 59558 51300.00000 0 -6873044.556 -24500263.109 1442184.574 10 0 59558 52200.00000 0 -7056411.303 -24422632.094 -1797274.142 10 0 59558 53100.00000 0 -7096926.908 -23958987.909 -5001719.633 10 0 59558 54000.00000 0 -6945120.881 -23138339.121 -8108715.628 10 0 59558 54900.00000 0 -6559023.826 -22001167.223 -11057717.167 10 0 59558 55800.00000 0 -5906199.913 -20597689.788 -13791263.154 10 0 59558 56700.00000 0 -4965378.325 -18985731.325 -16256107.260 10 0 59558 57600.00000 0 -3727613.026 -17228292.560 -18404263.996 10 0 59558 58500.00000 0 -2196920.539 -15390921.711 -20193948.679 10 0 59558 59400.00000 0 -390367.806 -13538999.425 -21590392.605 10 0 59558 60300.00000 0 1662394.261 -11735052.329 -22566517.568 10 0 59558 61200.00000 0 3920132.249 -10036208.518 -23103456.878 10 0 59558 62100.00000 0 6331524.902 -8491901.700 -23190913.468 10 0 59558 63000.00000 0 8837088.407 -7141919.668 -22827348.994 10 0 59558 63900.00000 0 11371451.701 -6014877.892 -22020001.188 10 0 59558 64800.00000 0 13865886.835 -5127180.590 -20784730.165 10 0 59558 65700.00000 0 16250988.955 -4482510.970 -19145697.533 10 0 59558 66600.00000 0 18459394.408 -4071869.949 -17134885.396 10 0 59558 67500.00000 0 20428424.188 -3874159.558 -14791465.215 10 0 59558 68400.00000 0 22102543.301 -3857284.478 -12161029.275 10 0 59558 69300.00000 0 23435534.363 -3979723.556 -9294700.083 10 0 59558 70200.00000 0 24392295.916 -4192503.652 -6248135.205 10 0 59558 71100.00000 0 24950191.684 -4441491.494 -3080446.930 10 0 59558 72000.00000 0 25099895.659 -4669906.201 146942.201 10 0 59558 72900.00000 0 24845699.067 -4820946.106 3371485.927 10 0 59558 73800.00000 0 24205267.518 -4840418.998 6530720.167 10 0 59558 74700.00000 0 23208859.494 -4679264.998 9563465.163 10 0 59558 75600.00000 0 21898039.556 -4295865.943 12411001.206 10 0 59558 76500.00000 0 20323940.398 -3658044.215 15018195.868 10 0 59558 77400.00000 0 18545146.385 -2744666.961 17334561.673 10 0 59558 78300.00000 0 16625286.577 -1546788.052 19315224.702 10 0 59558 79200.00000 0 14630436.968 -68279.231 20921786.345 10 0 59558 80100.00000 0 12626439.382 1674077.020 22123062.318 10 0 59558 81000.00000 0 10676247.656 3651038.289 22895685.423 10 0 59558 81900.00000 0 8837410.561 5821879.820 23224560.801 10 0 59558 82800.00000 0 7159795.326 8135860.230 23103164.955 10 0 59558 83700.00000 0 5683645.792 10534116.647 22533682.485 10 0 59558 84600.00000 0 4438055.567 12951912.689 21526977.169 10 0 59558 85500.00000 0 3439919.725 15321147.714 20102396.905 10 0 59559 0.00000 0 2693408.938 17573024.419 18287415.119 10 0 59559 900.00000 0 2189987.995 19640766.057 16117113.024 10 0 59559 1800.00000 0 1908979.387 21462267.489 13633513.795 10 0 59559 2700.00000 0 1818647.405 22982573.481 10884776.947 10 0 59559 3600.00000 0 1877758.543 24156076.998 7924269.803 10 0 59559 4500.00000 0 2037552.085 24948345.679 4809532.561 10 0 59559 5400.00000 0 2244037.454 25337498.452 1601157.045 10 0 59559 6300.00000 0 2440520.468 25315073.205 -1638398.782 10 0 59559 7200.00000 0 2570250.435 24886347.778 -4846036.571 10 0 59559 8100.00000 0 2579074.446 24070099.935 -7959258.635 10 0 59559 9000.00000 0 2417984.595 22897815.895 -10917398.731 10 0 59559 9900.00000 0 2045448.315 21412380.724 -13662817.018 10 0 59559 10800.00000 0 1429421.237 19666306.154 -16142034.585 10 0 59559 11700.00000 0 548955.644 17719571.131 -18306784.240 10 0 59559 12600.00000 0 -604664.886 15637166.926 -20114956.205 10 0 59559 13500.00000 0 -2027313.706 13486450.976 -21531419.854 10 0 59559 14400.00000 0 -3701958.755 11334421.368 -22528705.492 10 0 59559 15300.00000 0 -5599152.674 9245026.915 -23087533.177 10 0 59559 16200.00000 0 -7678054.994 7276625.630 -23197179.000 10 0 59559 17100.00000 0 -9887943.550 5479697.617 -22855672.539 10 0 59559 18000.00000 0 -12170151.636 3894907.219 -22069822.646 10 0 59559 18900.00000 0 -14460349.829 2551594.072 -20855072.053 10 0 59559 19800.00000 0 -16691077.083 1466754.310 -19235184.556 10 0 59559 20700.00000 0 -18794415.426 644552.513 -17241771.667 10 0 59559 21600.00000 0 -20704696.925 76382.454 -14913668.605 10 0 59559 22500.00000 0 -22361130.368 -258528.188 -12296172.203 10 0 59559 23400.00000 0 -23710238.601 -391996.694 -9440155.943 10 0 59559 24300.00000 0 -24708005.611 -365296.844 -6401079.511 10 0 59559 25200.00000 0 -25321644.574 -227171.508 -3237912.159 10 0 59559 26100.00000 0 -25530914.010 -31531.161 -11990.867 10 0 59559 27000.00000 0 -25328928.061 165063.901 3214164.701 10 0 59559 27900.00000 0 -24722427.991 306031.110 6378057.735 10 0 59559 28800.00000 0 -23731504.363 337392.084 9418417.201 10 0 59559 29700.00000 0 -22388782.112 210287.417 12276375.432 10 0 59559 30600.00000 0 -20738102.834 -116725.948 14896598.290 10 0 59559 31500.00000 0 -18832759.304 -675691.247 17228346.722 10 0 59559 32400.00000 0 -16733355.475 -1487665.761 19226450.180 10 0 59559 33300.00000 0 -14505380.411 -2561598.933 20852173.966 10 0 59559 34200.00000 0 -12216596.281 -3893722.476 22073964.581 10 0 59559 35100.00000 0 -9934347.901 -5467479.162 22868059.407 10 0 59559 36000.00000 0 -7722904.467 -7253994.894 23218949.381 10 0 59559 36900.00000 0 -5640942.874 -9213076.231 23119685.813 10 0 59559 37800.00000 0 -3739276.202 -11294693.962 22572025.157 10 0 59559 38700.00000 0 -2058921.020 -13440893.176 21586408.245 10 0 59559 39600.00000 0 -629583.581 -15588052.281 20181773.352 10 0 59559 40500.00000 0 531372.266 -17669398.699 18385205.361 10 0 59559 41400.00000 0 1419432.240 -19617677.734 16231426.330 10 0 59559 42300.00000 0 2042892.363 -21367863.969 13762135.819 10 0 59559 43200.00000 0 2422274.585 -22859802.133 11025212.404 10 0 59559 44100.00000 0 2589221.564 -24040666.526 8073790.723 10 0 59559 45000.00000 0 2584916.979 -24867135.003 4965231.376 10 0 59559 45900.00000 0 2458098.240 -25307184.994 1760003.439 10 0 59559 46800.00000 0 2262746.092 -25341434.621 -1479498.377 10 0 59559 47700.00000 0 2055549.857 -24963970.974 -4690178.089 10 0 59559 48600.00000 0 1893256.980 -24182629.408 -7809479.337 10 0 59559 49500.00000 0 1830020.840 -23018711.096 -10776617.309 10 0 59559 50400.00000 0 1914861.040 -21506150.225 -13533776.093 10 0 59559 51300.00000 0 2189345.578 -19690165.838 -16027246.755 10 0 59559 52200.00000 0 2685594.828 -17625455.324 -18208482.805 10 0 59559 53100.00000 0 3424693.196 -15374006.250 -20035051.520 10 0 59559 54000.00000 0 4415576.749 -13002619.187 -21471462.195 10 0 59559 54900.00000 0 5654444.585 -10580246.211 -22489855.120 10 0 59559 55800.00000 0 7124719.165 -8175257.279 -23070538.169 10 0 59559 56700.00000 0 8797557.457 -5852749.101 -23202361.233 10 0 59559 57600.00000 0 10632891.351 -3672008.839 -22882922.063 10 0 59559 58500.00000 0 12580953.483 -1684238.001 -22118600.491 10 0 59559 59400.00000 0 14584224.271 69369.654 -20924421.384 10 0 59559 60300.00000 0 16579718.459 1559117.578 -19323749.884 10 0 59559 61200.00000 0 18501515.339 2767803.027 -17347825.732 10 0 59559 62100.00000 0 20283426.878 3691181.462 -15035146.348 10 0 59559 63000.00000 0 21861692.401 4337881.730 -12430711.170 10 0 59559 63900.00000 0 23177587.495 4728777.964 -9585142.313 10 0 59559 64800.00000 0 24179838.588 4895846.776 -6553698.858 10 0 59559 65700.00000 0 24826742.906 4880559.718 -3395203.984 10 0 59559 66600.00000 0 25087905.849 4731880.127 -170905.828 10 0 59559 67500.00000 0 24945523.941 4503949.868 3056705.949 10 0 59559 68400.00000 0 24395160.389 4253564.100 6225105.205 10 0 59559 69300.00000 0 23445981.495 4037540.815 9272932.917 10 0 59559 70200.00000 0 22120444.449 3910095.984 12141176.534 10 0 59559 71100.00000 0 20453449.724 3920334.709 14774302.995 10 0 59559 72000.00000 0 18490993.361 4109963.700 17121324.149 10 0 59559 72900.00000 0 16288374.861 4511321.117 19136774.946 10 0 59559 73800.00000 0 13908034.541 5145806.534 20781586.398 10 0 59559 74700.00000 0 11417109.337 6022777.255 22023837.240 10 0 59559 75600.00000 0 8884807.373 7138957.947 22839370.527 10 0 59559 76500.00000 0 6379708.974 8478389.511 23212263.715 10 0 59559 77400.00000 0 3967104.885 10012920.874 23135143.238 10 0 59559 78300.00000 0 1706480.941 11703225.061 22609337.287 10 0 59559 79200.00000 0 -350747.395 13500299.245 21644863.178 10 0 59559 80100.00000 0 -2163157.137 15347388.225 20260248.511 10 0 59559 81000.00000 0 -3700816.981 17182252.956 18482188.309 10 0 59559 81900.00000 0 -4946301.279 18939690.981 16345043.229 10 0 59559 82800.00000 0 -5895176.250 20554204.424 13890187.086 10 0 59559 83700.00000 0 -6555937.838 21962704.364 11165214.931 10 0 59559 84600.00000 0 -6949403.576 23107138.149 8223025.906 10 0 59559 85500.00000 0 -7107583.780 23936928.604 5120798.017 10 0 59560 0.00000 0 -7072079.773 24411121.437 1918874.781 10 0 59560 900.00000 0 -6892077.056 24500149.137 -1320416.091 10 0 59560 1800.00000 0 -6622019.151 24187134.884 -4533983.835 10 0 59560 2700.00000 0 -6319061.648 23468680.739 -7659216.484 10 0 59560 3600.00000 0 -6040415.781 22355104.845 -10635213.546 10 0 59560 4500.00000 0 -5840695.771 20870116.931 -13403985.681 10 0 59560 5400.00000 0 -5769384.102 19049945.188 -15911596.294 10 0 59560 6300.00000 0 -5868523.722 16941951.110 -18109221.623 10 0 59560 7200.00000 0 -6170736.358 14602790.812 -19954107.713 10 0 59560 8100.00000 0 -6697651.826 12096200.565 -21410405.160 10 0 59560 9000.00000 0 -7458815.560 9490499.957 -22449865.312 10 0 59560 9900.00000 0 -8451120.762 6855917.893 -23052384.616 10 0 59560 10800.00000 0 -9658789.248 4261853.562 -23206387.193 10 0 59560 11700.00000 0 -11053901.575 1774186.769 -22909039.038 10 0 59560 12600.00000 0 -12597453.818 -547250.490 -22166290.645 10 0 59560 13500.00000 0 -14240896.159 -2650936.691 -20992748.265 10 0 59560 14400.00000 0 -15928088.355 -4495564.760 -19411377.218 10 0 59560 15300.00000 0 -17597589.714 -6051509.670 -17453043.876 10 0 59560 16200.00000 0 -19185187.414 -7301800.641 -15155905.899 10 0 59560 17100.00000 0 -20626557.215 -8242559.658 -12564663.047 10 0 59560 18000.00000 0 -21859945.202 -8882890.404 -9729683.548 10 0 59560 18900.00000 0 -22828758.530 -9244224.612 -6706023.191 10 0 59560 19800.00000 0 -23483957.075 -9359155.469 -3552356.264 10 0 59560 20700.00000 0 -23786146.329 -9269808.836 -329839.181 10 0 59560 21600.00000 0 -23707284.453 -9025822.266 2899071.317 10 0 59560 22500.00000 0 -23231932.547 -8682017.871 6071822.698 10 0 59560 23400.00000 0 -22357996.286 -8295867.569 9126970.854 10 0 59560 24300.00000 0 -21096928.188 -7924857.684 12005361.195 10 0 59560 25200.00000 0 -19473382.103 -7623863.716 14651264.435 10 0 59560 26100.00000 0 -17524334.179 -7442645.492 17013445.814 10 0 59560 27000.00000 0 -15297706.379 -7423567.661 19046147.983 10 0 59560 27900.00000 0 -12850549.000 -7599641.071 20709969.498 10 0 59560 28800.00000 0 -10246856.703 -7992967.160 21972622.754 10 0 59560 29700.00000 0 -7555107.376 -8613650.911 22809557.467 10 0 59560 30600.00000 0 -4845624.462 -9459228.577 23204438.154 10 0 59560 31500.00000 0 -2187870.697 -10514635.258 23149466.489 10 0 59560 32400.00000 0 352215.945 -11752715.164 22645542.130 10 0 59560 33300.00000 0 2714734.896 -13135255.047 21702258.240 10 0 59560 34200.00000 0 4848080.751 -14614499.483 20337730.803 10 0 59560 35100.00000 0 6710853.029 -16135086.544 18578263.726 10 0 59560 36000.00000 0 8273338.683 -17636324.529 16457854.712 10 0 59560 36900.00000 0 9518505.526 -19054715.649 14017549.978 10 0 59560 37800.00000 0 10442464.826 -20326621.603 11304658.912 10 0 59560 38700.00000 0 11054383.430 -21390959.321 8371842.730 10 0 59560 39600.00000 0 11375848.779 -22191813.028 5276094.174 10 0 59560 40500.00000 0 11439713.476 -22680851.724 2077627.766 10 0 59560 41400.00000 0 11288468.325 -22819448.782 -1161297.593 10 0 59560 42300.00000 0 10972213.083 -22580412.529 -4377599.938 10 0 59560 43200.00000 0 10546311.676 -21949253.073 -7508614.657 10 0 59560 44100.00000 0 10068832.409 -20924930.199 -10493328.464 10 0 59560 45000.00000 0 9597883.083 -19520049.402 -13273581.330 10 0 59560 45900.00000 0 9188955.534 -17760496.789 -15795211.548 10 0 59560 46800.00000 0 8892393.675 -15684527.584 -18009120.408 10 0 59560 47700.00000 0 8751093.605 -13341346.462 -19872234.749 10 0 59560 48600.00000 0 8798534.234 -10789239.495 -21348348.156 10 0 59560 49500.00000 0 9057222.368 -8093336.357 -22408824.331 10 0 59560 50400.00000 0 9537618.259 -5323097.042 -23033149.177 10 0 59560 51300.00000 0 10237586.893 -2549628.437 -23209321.510 10 0 59560 52200.00000 0 11142397.786 157057.113 -22934075.627 10 0 59560 53100.00000 0 12225272.721 2730727.047 -22212932.368 10 0 59560 54000.00000 0 13448457.693 5111446.449 -21060078.721 10 0 59560 54900.00000 0 14764773.322 7247824.730 -19498079.209 10 0 59560 55800.00000 0 16119577.960 9098898.966 -17557425.566 10 0 59560 56700.00000 0 17453060.548 10635577.347 -15275934.110 10 0 59560 57600.00000 0 18702766.702 11841584.678 -12698003.028 10 0 59560 58500.00000 0 19806251.800 12713872.742 -9873744.444 10 0 59560 59400.00000 0 20703749.825 13262480.762 -6858008.326 10 0 59560 60300.00000 0 21340746.170 13509854.054 -3709317.280 10 0 59560 61200.00000 0 21670346.776 13489651.442 -488732.994 10 0 59560 62100.00000 0 21655344.634 13245093.206 2741323.824 10 0 59560 63000.00000 0 21269897.385 12826920.274 5918277.380 10 0 59560 63900.00000 0 20500746.073 12291051.272 8980601.524 10 0 59560 64800.00000 0 19347924.167 11696036.432 11869002.495 10 0 59560 65700.00000 0 17824927.167 11100415.481 14527557.439 10 0 59560 66600.00000 0 15958335.414 10560090.338 16904787.377 10 0 59560 67500.00000 0 13786905.205 10125822.649 18954644.782 10 0 59560 68400.00000 0 11360165.102 9840960.755 20637397.601 10 0 59560 69300.00000 0 8736574.640 9739491.160 21920393.442 10 0 59560 70200.00000 0 5981320.416 9844496.031 22778689.930 10 0 59560 71100.00000 0 3163839.332 10167081.592 23195539.555 10 0 59560 72000.00000 0 355170.083 10705822.853 23162719.777 10 0 59560 72900.00000 0 -2374759.004 11446748.918 22680701.843 10 0 59560 73800.00000 0 -4959794.827 12363870.852 21758654.434 10 0 59560 74700.00000 0 -7340067.615 13420231.574 20414281.095 10 0 59560 75600.00000 0 -9464239.011 14569435.530 18673493.323 10 0 59560 76500.00000 0 -11291397.135 15757595.649 16569924.124 10 0 59560 77400.00000 0 -12792519.684 16925617.277 14144289.976 10 0 59560 78300.00000 0 -13951443.885 18011724.094 11443612.137 10 0 59560 79200.00000 0 -14765302.336 18954120.237 8520311.202 10 0 59560 80100.00000 0 -15244406.038 19693676.332 5431191.787 10 0 59560 81000.00000 0 -15411579.275 20176525.452 2236336.741 10 0 59560 81900.00000 0 -15300974.288 20356458.188 -1002067.435 10 0 59560 82800.00000 0 -14956416.024 20197014.026 -4220950.316 10 0 59560 83700.00000 0 -14429347.543 19673178.879 -7357597.631 10 0 59560 84600.00000 0 -13776464.038 18772615.127 -10350886.187 10 0 59560 85500.00000 0 -13057136.857 17496370.608 -13142487.992 10 0 59561 0.00000 0 -12330738.187 15859035.356 -15678018.516 10 0 59561 900.00000 0 -11653980.721 13888337.525 -17908106.779 10 0 59561 1800.00000 0 -11078387.278 11624197.240 -19789362.078 10 0 59561 2700.00000 0 -10647997.140 9117274.969 -21285222.558 10 0 59561 3600.00000 0 -10397407.770 6427077.479 -22366665.507 10 0 59561 4500.00000 0 -10350234.494 3619700.239 -23012767.172 10 0 59561 5400.00000 0 -10518053.041 765300.985 -23211101.598 10 0 59561 6300.00000 0 -10899869.030 -2064589.888 -22957971.550 10 0 59561 7200.00000 0 -11482135.926 -4799809.975 -22258468.007 10 0 59561 8100.00000 0 -12239319.726 -7374242.807 -21126358.076 10 0 59561 9000.00000 0 -13134985.607 -9728322.412 -19583804.477 10 0 59561 9900.00000 0 -14123359.789 -11811261.299 -17660922.902 10 0 59561 10800.00000 0 -15151300.124 -13582910.739 -15395186.575 10 0 59561 11700.00000 0 -16160591.861 -15015177.672 -12830690.061 10 0 59561 12600.00000 0 -17090471.648 -16092941.193 -10017287.085 10 0 59561 13500.00000 0 -17880273.415 -16814432.613 -7009619.322 10 0 59561 14400.00000 0 -18472084.910 -17191065.371 -3866055.096 10 0 59561 15300.00000 0 -18813303.382 -17246723.973 -647558.667 10 0 59561 16200.00000 0 -18858983.243 -17016543.572 2583488.066 10 0 59561 17100.00000 0 -18573877.429 -16545232.867 5764488.869 10 0 59561 18000.00000 0 -17934087.001 -15885011.762 8833838.406 10 0 59561 18900.00000 0 -16928249.954 -15093251.065 11732106.588 10 0 59561 19800.00000 0 -15558219.348 -14229913.571 14403179.759 10 0 59561 20700.00000 0 -13839202.072 -13354903.859 16795337.338 10 0 59561 21600.00000 0 -11799351.789 -12525437.651 18862244.004 10 0 59561 22500.00000 0 -9478831.986 -11793540.518 20563839.174 10 0 59561 23400.00000 0 -6928386.904 -11203780.243 21867107.381 10 0 59561 24300.00000 0 -4207478.093 -10791327.367 22746715.480 10 0 59561 25200.00000 0 -1382062.165 -10580424.889 23185504.831 10 0 59561 26100.00000 0 1477899.910 -10583331.294 23174829.167 10 0 59561 27000.00000 0 4301100.571 -10799781.571 22714731.424 10 0 59561 27900.00000 0 7017602.073 -11216989.663 21813955.539 10 0 59561 28800.00000 0 9561500.166 -11810193.372 20489792.019 10 0 59561 29700.00000 0 11873425.598 -12543720.251 18767759.020 10 0 59561 30600.00000 0 13902780.129 -13372531.206 16681123.580 10 0 59561 31500.00000 0 15609614.084 -14244178.274 14270270.826 10 0 59561 32400.00000 0 16966067.035 -15101095.272 11581931.902 10 0 59561 33300.00000 0 17957310.994 -15883125.490 8668284.425 10 0 59561 34200.00000 0 18581956.015 -16530179.865 5585942.169 10 0 59561 35100.00000 0 18851900.696 -16984912.972 2394853.290 10 0 59561 36000.00000 0 18791633.556 -17195302.693 -842871.353 10 0 59561 36900.00000 0 18437014.677 -17117022.995 -4064176.232 10 0 59561 37800.00000 0 17833589.360 -16715507.670 -7206300.770 10 0 59561 38700.00000 0 17034505.790 -15967615.801 -10208015.111 10 0 59561 39600.00000 0 16098125.787 -14862826.663 -13010826.365 10 0 59561 40500.00000 0 15085431.023 -13403911.913 -15560130.407 10 0 59561 41400.00000 0 14057335.772 -11607055.308 -17806285.578 10 0 59561 42300.00000 0 13072021.172 -9501414.005 -19705586.276 10 0 59561 43200.00000 0 12182404.756 -7128139.273 -21221116.995 10 0 59561 44100.00000 0 11433852.837 -4538897.520 -22323469.984 10 0 59561 45000.00000 0 10862232.635 -1793953.670 -22991312.777 10 0 59561 45900.00000 0 10492386.070 1040102.776 -23211795.160 10 0 59561 46800.00000 0 10337088.949 3892893.909 -22980788.455 10 0 59561 47700.00000 0 10396538.393 6692945.918 -22302953.454 10 0 59561 48600.00000 0 10658388.810 9370425.992 -21191636.693 10 0 59561 49500.00000 0 11098333.553 11859810.209 -19668598.049 10 0 59561 50400.00000 0 11681206.381 14102372.113 -17763575.821 10 0 59561 51300.00000 0 12362555.103 16048389.660 -15513698.467 10 0 59561 52200.00000 0 13090620.100 17658980.155 -12962754.956 10 0 59561 53100.00000 0 13808633.625 18907488.381 -10160338.341 10 0 59561 54000.00000 0 14457342.525 19780372.065 -7160879.445 10 0 59561 54900.00000 0 14977647.874 20277549.649 -4022589.490 10 0 59561 55800.00000 0 15313250.373 20412197.808 -806332.312 10 0 59561 56700.00000 0 15413190.226 20210008.986 2425552.109 10 0 59561 57600.00000 0 15234174.883 19707941.606 5610450.225 10 0 59561 58500.00000 0 14742596.976 18952516.506 8686680.559 10 0 59561 59400.00000 0 13916157.829 17997731.864 11594679.569 10 0 59561 60300.00000 0 12745028.332 16902684.407 14278145.455 10 0 59561 61200.00000 0 11232498.303 15728996.659 16685118.444 10 0 59561 62100.00000 0 9395086.505 14538157.727 18768977.556 10 0 59561 63000.00000 0 7262105.724 13388888.417 20489335.533 10 0 59561 63900.00000 0 4874699.788 12334640.335 21812815.406 10 0 59561 64800.00000 0 2284390.872 11421332.887 22713694.508 10 0 59561 65700.00000 0 -448804.396 10685422.257 23174404.003 10 0 59561 66600.00000 0 -3258613.814 10152382.772 23185874.453 10 0 59561 67500.00000 0 -6075012.652 9835664.136 22747720.633 10 0 59561 68400.00000 0 -8826888.985 9736168.452 21868261.431 10 0 59561 69300.00000 0 -11444762.332 9842269.612 20564373.539 10 0 59561 70200.00000 0 -13863444.036 10130375.175 18861180.499 10 0 59561 71100.00000 0 -16024529.729 10566008.241 16791581.655 10 0 59561 72000.00000 0 -17878620.359 11105365.016 14395628.633 10 0 59561 72900.00000 0 -19387179.212 11697283.504 11719759.982 10 0 59561 73800.00000 0 -20523946.861 12285541.025 8815907.602 10 0 59561 74700.00000 0 -21275854.123 12811383.871 5740491.534 10 0 59561 75600.00000 0 -21643394.022 13216181.898 2553322.262 10 0 59561 76500.00000 0 -21640436.488 13444095.005 -683568.002 10 0 59561 77400.00000 0 -21293493.184 13444637.291 -3907141.611 10 0 59561 78300.00000 0 -20640463.422 13175028.670 -7054594.635 10 0 59561 79200.00000 0 -19728914.483 12602232.435 -10064593.421 10 0 59561 80100.00000 0 -18613969.701 11704590.595 -12878482.912 10 0 59561 81000.00000 0 -17355894.632 10472985.958 -15441441.727 10 0 59561 81900.00000 0 -16017484.499 8911480.254 -17703560.266 10 0 59561 82800.00000 0 -14661364.561 7037400.144 -19620819.755 10 0 59561 83700.00000 0 -13347318.458 4880866.623 -21155952.627 10 0 59561 84600.00000 0 -12129758.004 2483787.025 -22279167.289 10 0 59561 85500.00000 0 -11055441.515 -101648.204 -22968723.350 99